GW3142 Weather Reports


time (UTC)temp
F
wind
direction
speed
knots
gust
knots
rain 1hr
in
rain 24hr
in
rain mn
in
humidity
%
barometer
mb
20260505234003 51 220 3.5 7.0 0.00 0.05 0.05 78 1016.0
20260505233717 51 220 3.5 7.0 0.00 0.05 0.05 78 1016.0
20260505233003 51 220 4.3 7.0 0.00 0.05 0.05 78 1016.0
20260505232503 51 220 4.3 7.0 0.00 0.05 0.05 78 1016.0
20260505232003 51 220 4.3 7.8 0.00 0.05 0.05 78 1016.1
20260505231503 52 220 4.3 7.8 0.00 0.05 0.05 78 1016.1
20260505231003 52 220 4.3 7.0 0.00 0.05 0.05 78 1016.1
20260505230503 52 220 4.3 7.0 0.00 0.05 0.05 78 1016.1
20260505230004 51 220 4.3 7.0 0.00 0.05 0.05 78 1016.0
20260505225716 51 220 4.3 7.0 0.00 0.05 0.05 78 1016.1
20260505225003 51 220 4.3 7.0 0.00 0.05 0.05 78 1016.1
20260505224716 51 220 4.3 7.0 0.00 0.05 0.05 78 1016.1
20260505224214 51 220 3.5 7.0 0.00 0.05 0.05 78 1016.1
20260505223503 51 220 3.5 6.1 0.00 0.05 0.05 78 1016.2
20260505223003 51 220 3.5 6.1 0.00 0.05 0.05 79 1016.2
20260505222503 51 220 2.6 6.1 0.00 0.05 0.05 79 1016.3
20260505222003 51 220 1.7 5.2 0.00 0.05 0.05 79 1016.3
20260505221503 51 220 1.7 3.5 0.00 0.05 0.05 79 1016.3
20260505221003 51 220 1.7 3.5 0.00 0.05 0.05 79 1016.4
20260505220503 51 220 1.7 5.2 0.00 0.05 0.05 79 1016.4
20260505220004 50 220 3.5 6.1 0.00 0.05 0.05 79 1016.4
20260505215716 50 220 3.5 6.1 0.00 0.05 0.05 79 1016.4
20260505215214 50 220 4.3 7.0 0.00 0.05 0.05 79 1016.4
20260505214503 51 220 4.3 7.0 0.00 0.05 0.05 79 1016.5
20260505214003 51 220 4.3 7.0 0.00 0.05 0.05 79 1016.5
20260505213713 51 220 3.5 7.0 0.00 0.05 0.05 79 1016.5
20260505213003 51 220 3.5 7.8 0.00 0.05 0.05 79 1016.6
20260505212503 51 220 4.3 7.8 0.00 0.05 0.05 79 1016.5
20260505212003 51 220 3.5 7.0 0.00 0.05 0.05 79 1016.5
20260505211503 51 220 3.5 7.0 0.00 0.05 0.05 79 1016.4
20260505211003 51 220 4.3 7.8 0.00 0.05 0.05 79 1016.5
20260505210716 51 220 4.3 7.8 0.00 0.05 0.05 79 1016.5
20260505210003 51 220 3.5 7.8 0.00 0.05 0.05 79 1016.4
20260505205503 51 220 1.7 6.1 0.00 0.05 0.05 79 1016.4
20260505205003 51 220 1.7 6.1 0.00 0.05 0.05 79 1016.4
20260505204503 51 220 1.7 7.0 0.00 0.05 0.05 79 1016.4
20260505204003 51 220 2.6 7.0 0.00 0.05 0.05 79 1016.5
20260505203503 50 220 5.2 9.6 0.00 0.05 0.05 80 1016.4
20260505203003 50 220 6.1 10.4 0.00 0.05 0.05 80 1016.4
20260505202503 50 220 5.2 10.4 0.00 0.05 0.05 80 1016.4
20260505202004 50 220 4.3 7.8 0.00 0.05 0.05 80 1016.5
20260505201503 50 220 2.6 7.0 0.00 0.05 0.05 80 1016.6
20260505201003 50 220 2.6 7.0 0.00 0.05 0.05 80 1016.6
20260505200503 50 220 3.5 7.0 0.00 0.07 0.05 80 1016.7
20260505200214 50 220 4.3 7.0 0.00 0.07 0.05 80 1016.6
20260505195503 50 220 4.3 7.8 0.00 0.07 0.05 80 1016.6
20260505195003 50 220 3.5 7.8 0.00 0.07 0.05 80 1016.6
20260505194503 50 220 3.5 7.8 0.00 0.07 0.05 80 1016.7
20260505194003 50 220 4.3 8.7 0.00 0.07 0.05 79 1016.7
20260505193714 50 220 4.3 8.7 0.00 0.07 0.05 79 1016.6
20260505193212 50 220 5.2 8.7 0.00 0.07 0.05 79 1016.6
20260505192503 50 220 4.3 8.7 0.00 0.07 0.05 79 1016.6
20260505192003 50 220 4.3 7.8 0.00 0.07 0.05 79 1016.6
20260505191503 50 220 4.3 7.8 0.00 0.07 0.05 79 1016.5
20260505191003 50 219 4.3 7.0 0.00 0.07 0.05 80 1016.6
20260505190503 50 220 3.5 7.0 0.00 0.07 0.05 80 1016.6
20260505190004 49 220 3.5 7.0 0.00 0.07 0.05 80 1016.5
20260505185503 49 220 3.5 8.7 0.00 0.07 0.05 79 1016.5
20260505185003 49 220 3.5 8.7 0.00 0.07 0.05 79 1016.5
20260505184503 49 220 3.5 7.0 0.00 0.07 0.05 79 1016.4
20260505184217 49 219 2.6 7.0 0.00 0.07 0.05 80 1016.4
20260505183503 49 220 3.5 7.0 0.00 0.07 0.05 79 1016.3
20260505183003 49 220 3.5 6.1 0.00 0.07 0.05 80 1016.4
20260505182503 49 220 3.5 7.0 0.00 0.07 0.05 79 1016.4
20260505182003 49 220 4.3 7.0 0.00 0.07 0.05 79 1016.4
20260505181503 49 220 3.5 7.0 0.00 0.07 0.05 79 1016.3
20260505181003 49 220 2.6 6.1 0.00 0.07 0.05 79 1016.3
20260505180713 49 219 2.6 4.3 0.00 0.07 0.05 79 1016.3
20260505180003 48 219 2.6 7.0 0.00 0.07 0.05 79 1016.2
20260505175503 48 219 2.6 7.0 0.00 0.07 0.05 79 1016.3
20260505175217 48 220 2.6 5.2 0.00 0.07 0.05 79 1016.3
20260505174503 48 220 3.5 5.2 0.00 0.07 0.05 79 1016.1
20260505174003 48 220 3.5 5.2 0.00 0.07 0.05 79 1016.0
20260505173503 48 220 3.5 7.0 0.00 0.07 0.05 79 1016.0
20260505173003 48 220 3.5 7.0 0.00 0.07 0.05 79 1015.9
20260505172503 48 220 4.3 7.8 0.00 0.07 0.05 79 1015.9
20260505172003 48 220 3.5 7.8 0.00 0.07 0.05 79 1015.8
20260505171503 48 220 3.5 7.0 0.00 0.07 0.05 79 1015.8
20260505171215 48 220 3.5 8.7 0.00 0.07 0.05 79 1015.8
20260505170503 47 220 3.5 8.7 0.00 0.07 0.05 79 1015.8
20260505170003 48 220 2.6 6.1 0.00 0.07 0.05 79 1015.8
20260505165503 48 220 3.5 7.8 0.00 0.07 0.05 79 1015.8
20260505165003 48 220 4.3 7.8 0.00 0.07 0.05 79 1015.7
20260505164715 48 220 3.5 7.8 0.00 0.07 0.05 79 1015.7
20260505164213 48 220 3.5 7.0 0.00 0.07 0.05 79 1015.6
20260505163503 48 220 4.3 7.8 0.00 0.07 0.05 79 1015.7
20260505163003 48 220 5.2 9.6 0.00 0.07 0.05 79 1015.6
20260505162717 48 220 4.3 9.6 0.00 0.07 0.05 79 1015.6
20260505162003 48 220 2.6 6.1 0.00 0.07 0.05 79 1015.6
20260505161713 48 220 2.6 6.1 0.00 0.07 0.05 79 1015.6
20260505161003 48 220 2.6 6.1 0.00 0.07 0.05 79 1015.6
20260505160503 48 220 2.6 7.0 0.00 0.07 0.05 78 1015.5
20260505160217 48 220 2.6 7.0 0.00 0.07 0.05 79 1015.5
20260505153003 48 220 1.7 4.3 0.00 0.07 0.05 79 1015.3
20260505152503 47 220 0.9 3.5 0.00 0.07 0.05 79 1015.3
20260505152003 47 219 0.9 6.1 0.00 0.07 0.05 78 1015.2
20260505151503 47 219 2.6 6.1 0.00 0.07 0.05 78 1015.2
20260505151003 47 220 2.6 6.1 0.00 0.07 0.05 79 1015.1
20260505150503 47 220 1.7 4.3 0.00 0.07 0.05 79 1015.2
20260505140503 46 220 0.9 6.1 0.00 0.07 0.05 79 1014.9
20260505130214 46 220 1.7 6.1 0.00 0.07 0.05 79 1014.5
20260505124503 46 219 0.9 5.2 0.02 0.07 0.05 79 1014.9
20260505124216 46 219 0.0 3.5 0.02 0.07 0.05 79 1014.9
20260505123503 46 219 0.9 4.3 0.02 0.07 0.05 79 1014.6
20260505123003 46 219 0.9 4.3 0.02 0.07 0.05 79 1014.8
20260505122503 46 219 0.9 2.6 0.02 0.07 0.05 79 1014.6
20260505122003 46 220 0.9 3.5 0.02 0.07 0.05 79 1014.6
20260505121503 46 220 0.9 3.5 0.02 0.07 0.05 79 1014.6
20260505121213 46 220 0.0 3.5 0.02 0.07 0.05 79 1014.7
20260505120503 46 220 0.0 0.9 0.02 0.07 0.05 79 1014.6
20260505120003 46 220 0.0 2.6 0.02 0.07 0.05 79 1014.7
20260505115503 46 220 0.0 2.6 0.05 0.07 0.05 79 1014.6
20260505115003 46 219 0.0 2.6 0.05 0.07 0.05 79 1014.7
20260505114503 46 219 0.0 2.6 0.02 0.05 0.02 79 1014.6
20260505114003 46 0 0.0 0.0 0.02 0.05 0.02 79 1014.6
20260505113503 46 0 0.0 0.0 0.02 0.05 0.02 79 1014.7
20260505113003 46 0 0.0 0.0 0.02 0.05 0.02 79 1014.7
20260505112503 46 0 0.0 0.0 0.02 0.05 0.02 95 1014.8
20260505112003 46 0 0.0 0.0 0.02 0.05 0.02 78 1014.7
20260505111503 46 0 0.0 0.0 0.02 0.05 0.02 78 1014.7
20260505111003 46 220 0.0 3.5 0.02 0.05 0.02 78 1014.6
20260505110503 45 219 0.0 3.5 0.02 0.05 0.02 78 1014.6
20260505102004 45 0 0.0 0.0 0.00 0.02 0.00 78 1014.7
20260505101503 45 0 0.0 0.0 0.00 0.02 0.00 78 1014.8
20260505101003 45 0 0.0 0.0 0.00 0.02 0.00 78 1014.8
20260505100503 45 220 0.0 0.9 0.00 0.02 0.00 78 1014.8
20260505100003 45 220 0.9 3.5 0.00 0.02 0.00 78 1014.9
20260505095714 45 220 1.7 4.3 0.00 0.02 0.00 78 1015.0
20260505095217 45 220 1.7 4.3 0.00 0.02 0.00 78 1014.8
20260505094503 45 220 0.9 3.5 0.00 0.02 0.00 78 1014.9
20260505094003 45 220 0.9 4.3 0.00 0.02 0.00 78 1014.9
20260505093503 45 220 1.7 4.3 0.00 0.02 0.00 78 1014.9
20260505093214 45 220 0.9 3.5 0.00 0.02 0.00 79 1014.9
20260505092503 45 220 0.0 3.5 0.00 0.02 0.00 79 1014.8
20260505092003 45 220 0.0 2.6 0.00 0.02 0.00 79 1015.0
20260505091503 45 0 0.0 0.0 0.00 0.02 0.00 79 1015.0
20260505091003 45 0 0.0 0.0 0.00 0.02 0.00 79 1015.1
20260505090503 45 0 0.0 0.0 0.00 0.02 0.00 79 1015.2
20260505090003 45 0 0.0 0.0 0.00 0.02 0.00 79 1015.2
20260505085714 45 0 0.0 0.0 0.00 0.02 0.00 79 1015.1
20260505085003 45 0 0.0 0.0 0.00 0.02 0.00 79 1015.3
20260505084503 46 0 0.0 0.0 0.00 0.02 0.00 79 1015.3
20260505084003 46 0 0.0 0.0 0.00 0.02 0.00 79 1015.3
20260505083716 46 0 0.0 0.0 0.00 0.02 0.00 79 1015.3
20260505083003 46 0 0.0 0.0 0.00 0.02 0.00 79 1015.4
20260505082503 46 0 0.0 0.0 0.00 0.02 0.00 79 1015.4
20260505082003 46 0 0.0 0.0 0.00 0.02 0.00 79 1015.3
20260505081503 46 0 0.0 0.0 0.00 0.02 0.00 79 1015.4
20260505081003 46 0 0.0 0.0 0.00 0.02 0.00 79 1015.5
20260505080503 46 0 0.0 0.0 0.00 0.02 0.00 79 1015.6
20260505080003 46 0 0.0 0.0 0.00 0.02 0.00 79 1015.6
20260505075503 46 0 0.0 0.0 0.00 0.02 0.00 79 1015.6
20260505075003 46 0 0.0 0.0 0.00 0.02 0.00 79 1015.6
20260505074503 46 0 0.0 0.0 0.00 0.02 0.00 79 1015.6
20260505074214 46 220 0.9 7.0 0.00 0.02 0.00 79 1015.6
20260505073503 46 220 0.9 7.0 0.00 0.02 0.00 79 1015.6
20260505073003 46 220 0.0 3.5 0.00 0.02 0.00 79 1015.5
20260505072713 46 220 0.0 3.5 0.00 0.02 0.00 79 1015.5
20260505072216 46 220 0.9 5.2 0.00 0.02 0.00 79 1015.5
20260505071503 46 220 2.6 5.2 0.00 0.02 0.00 79 1015.4
20260505071003 46 220 3.5 5.2 0.00 0.02 0.00 79 1015.4
20260505070503 46 220 3.5 7.0 0.00 0.02 0.00 79 1015.3
20260505070007 47 220 3.5 7.0 0.00 0.02 0.00 79 1015.2
20260505065503 47 220 2.6 6.1 0.00 0.02 0.02 79 1015.3
20260505065003 47 220 1.7 4.3 0.00 0.02 0.02 79 1015.3
20260505064503 47 220 1.7 5.2 0.00 0.02 0.02 79 1015.3
20260505064003 47 220 1.7 5.2 0.00 0.02 0.02 79 1015.2
20260505063503 47 220 1.7 5.2 0.00 0.02 0.02 79 1015.2
20260505063003 47 220 1.7 5.2 0.00 0.02 0.02 79 1015.2
20260505062713 47 220 1.7 5.2 0.00 0.02 0.02 79 1015.1
20260505062003 47 220 2.6 5.2 0.00 0.02 0.02 79 1015.1
20260505061714 47 220 2.6 5.2 0.00 0.02 0.02 79 1015.1
20260505061003 47 220 2.6 4.3 0.00 0.02 0.02 79 1015.0
20260505060503 47 220 1.7 3.5 0.00 0.02 0.02 79 1015.1
20260505060004 47 220 0.9 3.5 0.00 0.02 0.02 79 1015.1
20260505055503 46 219 0.9 3.5 0.00 0.02 0.02 79 1015.2
20260505055003 46 219 0.0 2.6 0.00 0.02 0.02 79 1015.3
20260505054503 46 219 0.0 1.7 0.00 0.02 0.02 79 1015.1
20260505054003 46 0 0.0 0.0 0.00 0.02 0.02 79 1015.3
20260505053503 46 220 0.0 0.9 0.00 0.02 0.02 78 1015.5
20260505053003 46 220 0.0 1.7 0.00 0.02 0.02 78 1015.6
20260505052714 46 220 0.0 1.7 0.00 0.02 0.02 78 1015.6
20260505052003 46 0 0.0 0.0 0.00 0.02 0.02 78 1015.6
20260505051503 46 0 0.0 0.9 0.00 0.02 0.02 78 1015.6
20260505051003 46 0 0.0 0.9 0.00 0.02 0.02 78 1015.6
20260505050716 46 220 0.0 0.9 0.00 0.02 0.02 78 1015.7
20260505041503 47 220 1.7 4.3 0.00 0.02 0.02 78 1015.3
20260505041003 47 219 1.7 4.3 0.00 0.02 0.02 78 1015.3
20260505040503 47 219 2.6 4.3 0.00 0.02 0.02 78 1015.3
20260505040004 47 220 1.7 5.2 0.00 0.02 0.02 78 1015.2
20260505035503 47 220 0.9 5.2 0.00 0.02 0.02 78 1015.1
20260505035003 47 219 1.7 6.1 0.00 0.02 0.02 78 1015.1
20260505034503 47 219 1.7 6.1 0.00 0.02 0.02 78 1014.9
20260505034003 48 220 1.7 4.3 0.00 0.02 0.02 78 1014.9
20260505033503 48 220 2.6 4.3 0.00 0.02 0.02 78 1014.7
20260505033003 48 220 2.6 4.3 0.00 0.02 0.02 78 1014.7
20260505032715 48 220 1.7 4.3 0.00 0.02 0.02 78 1014.8
20260505032213 48 220 1.7 3.5 0.00 0.02 0.02 78 1014.8
20260505031503 48 220 1.7 3.5 0.00 0.02 0.02 78 1014.8
20260505031003 48 220 0.0 3.5 0.00 0.02 0.02 78 1014.8
20260505030503 48 220 0.0 1.7 0.00 0.02 0.02 78 1014.9
20260505030003 48 220 0.9 4.3 0.00 0.02 0.02 77 1014.8
20260505025503 48 220 0.9 4.3 0.00 0.02 0.02 76 1014.8
20260505025216 48 220 0.9 4.3 0.00 0.02 0.02 76 1014.8
20260505024503 48 220 0.0 4.3 0.00 0.02 0.02 77 1014.6
20260505024003 49 220 0.9 4.3 0.00 0.02 0.02 77 1014.7
20260505023503 49 220 1.7 6.1 0.00 0.02 0.02 77 1014.8
20260505023003 49 220 2.6 6.1 0.00 0.02 0.02 77 1014.7
20260505022503 49 220 1.7 4.3 0.00 0.02 0.02 77 1014.6
20260505022003 49 220 1.7 6.1 0.00 0.02 0.02 90 1014.9
20260505021503 50 220 3.5 7.0 0.00 0.02 0.02 91 1014.7
20260505021215 50 220 3.5 7.0 0.00 0.02 0.02 91 1014.7
20260505020713 50 220 3.5 7.0 0.00 0.02 0.02 76 1014.7
20260505020003 50 220 3.5 6.1 0.00 0.02 0.02 76 1014.6
20260505015503 50 220 3.5 7.0 0.00 0.02 0.02 90 1014.7
20260505015003 51 220 4.3 8.7 0.00 0.02 0.02 89 1014.7
20260505014503 51 220 3.5 8.7 0.00 0.02 0.02 87 1014.7
20260505014003 52 220 3.5 6.1 0.00 0.02 0.02 86 1014.6
20260505013503 52 220 3.5 6.1 0.00 0.02 0.02 74 1014.6
20260505013003 53 220 4.3 7.8 0.00 0.02 0.02 86 1014.6
20260505012503 53 220 5.2 8.7 0.00 0.02 0.02 86 1014.8
20260505012003 53 220 5.2 8.7 0.00 0.02 0.02 87 1014.8
20260505011503 52 220 5.2 8.7 0.00 0.02 0.02 87 1014.8
20260505011003 52 220 6.1 8.7 0.00 0.02 0.02 86 1014.9
20260505010503 53 220 6.1 9.6 0.00 0.02 0.02 85 1015.0
20260505010003 53 220 5.2 9.6 0.00 0.02 0.02 73 1015.1
20260505005503 53 220 4.3 8.7 0.00 0.02 0.02 74 1015.1
20260505005004 53 220 5.2 7.8 0.00 0.02 0.02 85 1015.1
20260505004503 53 220 5.2 7.8 0.00 0.02 0.02 75 1015.1
20260505004003 53 220 4.3 7.8 0.00 0.02 0.02 74 1015.2
20260505003503 53 220 2.6 6.1 0.00 0.02 0.02 75 1015.3
20260505003003 52 220 3.5 6.1 0.00 0.02 0.02 75 1015.4
20260505002717 52 220 3.5 8.7 0.00 0.02 0.02 75 1015.4
20260505002003 52 220 4.3 8.7 0.00 0.02 0.02 76 1015.4
20260505001503 52 220 4.3 7.8 0.00 0.02 0.02 76 1015.4
20260505001003 52 220 3.5 7.0 0.00 0.02 0.02 76 1015.4
20260505000503 52 220 3.5 7.0 0.00 0.02 0.02 77 1015.2
20260505000003 51 220 3.5 7.0 0.00 0.05 0.02 76 1015.3
20260504235503 51 220 3.5 7.0 0.00 0.05 0.02 77 1015.3
20260504235003 51 219 3.5 7.0 0.00 0.05 0.02 77 1015.2
20260504234716 51 220 4.3 7.8 0.00 0.05 0.02 77 1015.3